Meath Environmental Platform

Observations for Trim Market St

Time AQI Temp °C Hum % Pres Pa CO μg/m³ H₂S μg/m³ NO μg/m³ NO₂ μg/m³ O₃ μg/m³ SO₂ μg/m³ PM1 μg/m³ PM2.5 μg/m³ PM10 μg/m³
Wednesday 26 August 2026
18:01 2 27.1 47 64,281 0 4.94 1.1 20.93 148.62 0 4.28 7.79 9.82
17:57 2 27.5 46 64,944 0 0.31 1.09 19.09 149.06 0 5.7 8.36 12.15
17:55 2 27.7 46 65,056 0 2.22 1.09 20.56 127.19 0 4.28 7.33 9.84
17:54 2 27.7 45 65,113 0 4.17 1.08 22.84 145.51 0 3.56 6.82 9.07
17:47 2 28.4 44 65,469 0 0 1.32 20.94 113.68 0 3.56 6.36 7.53
17:46 2 28.5 44 65,523 0 2.3 1.31 25.57 113.31 0 2.85 7.41 9.87
17:45 2 28.6 44 65,566 0 0 1.3 27.52 97.72 0 4.99 7.42 9.09
17:44 2 28.7 44 65,621 0 0 1.29 22.14 113.34 0 3.56 6.39 7.53
17:43 2 28.8 43 65,665 0 0.57 1.12 24.07 117.1 0 3.56 6.41 7.53
17:42 2 28.9 43 65,688 0 0 1.08 23.55 125.59 0 4.28 6.95 9.1
17:41 2 29 43 65,748 0 0 1.05 22.7 120.71 0 2.14 5.92 9.11
17:40 2 29.1 42 65,764 0 0 1.1 21.7 109.8 0 2.14 5.93 6.74
17:39 2 29.2 42 65,787 0 0 1.14 23.02 111.59 0 3.56 6.99 9.11
17:38 2 29.3 42 65,791 0 0 1.24 20.61 104.55 0 4.28 7 9.9
17:37 2 29.4 42 65,791 0 0 1.29 20.39 108.86 0 3.56 6.47 8.32
17:36 2 29.5 42 65,789 0 0 1.34 23.99 106.75 0 2.85 5.96 6.73
17:35 2 29.6 42 65,817 0 0 1.3 22.86 94.98 0 2.85 5.44 5.94
17:34 2 29.7 42 65,795 0 0 1.29 21.48 90.19 0 4.28 8.06 9.91
17:32 2 29.8 42 65,797 0 0 1.23 21.28 91.42 0 3.56 6.48 7.53
17:31 2 29.9 42 65,795 0 0 1.23 21.93 108.3 0 3.56 7.01 8.32